Volver al catálogo

COSMOS 2067

ActivoMilitarLEO
NORAD 20552·PAYLOAD·🇷🇺 Russia

Lanzado Apr 6, 1990 desde Plesetsk Cosmodrome

Loading…

Próximos Pases (próximas 24 horas)

TLE

ActualizadoSource: Space-Track

Época: Sep 14, 2026, 10:35 UTC

1 20552U 90029D   26257.44125185 -.00000024  00000-0 -47461-4 0  9990
2 20552  73.9782 249.9545 0039689  22.9215  50.0533 12.57939297673428

Sigue COSMOS 2067 en tiempo real con AllMySat

Download on the App Store